Skip Page Navigation
NASA JPL Caltech
NASA Logo - Jet Propulsion Laboratory + View the NASA Portal
+ Center for Near-Earth Object Studies
JPL Home Earth Solar System Stars & Galaxies Technology
JPL Solar System Dynamics
BODIES ORBITS EPHEMERIDES TOOLS PHYSICAL DATA DISCOVERY FAQ SITE MAP
IMPORTANT: The SSD Announcement email list is now available. Major changes are coming in the near future, including possible hostname and/or URL changes. To be notified of such changes, subscribe to this email list.

Please visit this page for more details.


JPL Small-Body Database Browser
Search: [ help ]  
183783 (2004 BE27)
Classification: Main-belt Asteroid          SPK-ID: 2183783
Ephemeris | Orbit Diagram | Orbital Elements | Mission Design | Physical Parameters | Discovery Circumstances | Close-Approach Data ]

[ show orbit diagram ]
Orbital Elements at Epoch 2458600.5 (2019-Apr-27.0) TDB
Reference: JPL 17 (heliocentric ecliptic J2000)
 Element Value Uncertainty (1-sigma)   Units 
e .1923462604339189 3.469e-08  
a 2.341094657993122 1.0109e-08 au
q 1.890793855206321 8.2736e-08 au
i 1.102844820141391 4.8108e-06 deg
node 253.5850207058111 0.00026771 deg
peri 212.2910673993682 0.0002683 deg
M 111.3002404076696 1.585e-05 deg
tp 2458195.998171176119
(2018-Mar-18.49817118)
5.7309e-05 TDB
period 1308.358884430249
3.58
8.4742e-06
2.32e-08
d
yr
n .2751538620512132 1.7822e-09 deg/d
Q 2.791395460779923 1.2053e-08 au
  Orbit Determination Parameters
   # obs. used (total)      382  
   data-arc span      8623 days (23.61 yr)  
   first obs. used      1995-09-21  
   last obs. used      2019-05-01  
   planetary ephem.      DE431  
   SB-pert. ephem.      SB431-N16  
   condition code      0  
   norm. resid. RMS      .52364  
   source      ORB  
   producer      Otto Matic  
   solution date      2019-Jul-13 12:53:20  

Additional Information
 Earth MOID = .907929 au 
 Jupiter MOID = 2.34609 au 
 T_jup = 3.539 
[ show covariance matrix ]

Ephemeris | Orbit Diagram | Orbital Elements | Mission Design | Physical Parameters | Discovery Circumstances | Close-Approach Data ]

Physical Parameter Table
Parameter Symbol Value Units Sigma Reference Notes
absolute magnitude H 17.0   n/a MPO436908  

183783 (2004 BE27)          Discovered 2004-Jan-21 by LINEAR at Socorro
Reference: 20080420/Numbers.arcLast Updated: 2008-04-23

[ show close-approach data ]
Alternate Designations
 2004 BE27 = 1999 TH299 
Ephemeris | Orbit Diagram | Orbital Elements | Mission Design | Physical Parameters | Discovery Circumstances | Close-Approach Data ]
ABOUT SSD CREDITS/AWARDS PRIVACY/COPYRIGHT GLOSSARY LINKS
FirstGov
(server date/time)  
NASA Home Page
Site Manager:   Ryan S. Park
Webmaster  Alan B. Chamberlin